STARLINK-37262, 68508

Orbit data source: Space-Track

STARLINK-37262, 68508 is a payload satellite owned by SpaceX/Seattle (US) in LEO that was launched on Mon, 30 Mar 2026 UTC via an FALCON 9 launch vehicle from the Air Force Eastern Test Range (AFETR). Payload-class satellites include a variety of spacecraft equipped with specific instruments for various scientific and technological missions. These include communications satellites like Starlink; space stations such as the ISS; scientific satellites like the Hubble; Earth observation satellites from companies like Planet Labs, Umbra, and HawkEye 360; GPS; miniature CubeSats for education and research; and military/defense satellites.

Loading next visibility...
Identifier
68508, 2026-068A
Orbit
LEO
Country
Flag of USUS
Related business
Manufacturer
SpaceX/Seattle
Mission
Operational spacecraft
Bus & Motor
STARLINK V2MO, Unknown motor
Mass
575 kg wet, ~530 kg dry
Launch date (UTC)
2026-03-30 (3 months ago)
Launch vehicle
FALCON 9
Launch site
Air Force Eastern Test Range (AFETR)
Object type
Payload
Rocket body
Debris
Shape & HBR
Unknown shape, 2.7 m
Radar Cross Section
Large (>1 m²)

Expand to show TLE details & history
Last TLE update: 22 hours ago

TLE from 22 hours ago
0 STARLINK-37262
1 68508U 26068A   26170.93219541  .00017486  00000-0  52730-3 0  9995
2 68508  53.1603   6.7868 0000735 111.8961 248.2120 15.34409358 12705
Epoch: 2026-06-19T22:22Z
TLE epoch observation values (Epoch: 2026-06-19T22:22:21.683Z)
Latitude
-0°
Longitude
123.04237°
Altitude
463.763 km
Speed
7.636 km/s
True Right ascension
00h 27m 08s
True Declination
0° 00' 00"
Sunlit
Object was in daylight at epoch
Visualization orbit readout
Latitude
Unknown
Longitude
Unknown
Altitude
Unknown
Speed
Unknown
Apparent Right ascension
Unknown
Apparent Declination
Unknown
Sunlit
N/A
Visualization observer readout
Local Sidereal Time
07:19:05
Azimuth
Unknown
Elevation
Unknown
Doppler factor
Unknown
Orbital elements
Apogee altitude
463.435 km
Perigee altitude
462.429 km
Semi-major axis
6,841.069 km
Eccentricity
0.00007
Inclination
53.1603°
RAAN
6.7868°
Arg. of periapsis
111.8961°
True anomaly
248.20418°
Mean anomaly
248.212°
Eccentric anomaly
248.20809°
Mean motion
3.83581 °/min
Orbital period
93.85 mins
BSTAR
0.0005273
Loading maneuver chart data...
Computing Atmospheric mass density...
Loading historical data...
Loading historical data...
Loading historical data...
Loading historical data...
Loading historical data...
Loading historical data...
Loading historical data...

Documentation

Showing up to 5 results
|